"TOA5","AWS1","CR1000","7964","CR1000.Std.14","CPU:AWS1_114.CR1","64363","TBL110"
"TIMESTAMP","RECORD","Wind_spd_WVc(1)","Wind_spd_WVc(2)","Air_Temp_Avg","Humidity_Avg","SW_upper_Wm2_Avg","Rain_Tot","Press_Avg","Issui_Tot","Depth_cm","SR50A_Raw","Quality","Ground_Temp_Avg(1)","Ground_Temp_Avg(2)","SW_lower_Wm2_Avg","Albedo_Avg","SWC_per(1)","SWC_per(2)","Period(1)","Period(2)"
"TS","RN","","","","","","","","","","","","","","","","","","",""
"","","WVc","WVc","Avg","Avg","Avg","Tot","Avg","Tot","Smp","Smp","Smp","Avg","Avg","Avg","Avg","Smp","Smp","Smp","Smp"
"2016-08-06 00:00:00",247453,0.044,21.36,20.04,100,0,0,867.5385,0,2.035,3.05,200,22.58,21.71,0.2273725,0,50.11,57.33,33.33,35.06
"2016-08-06 00:10:00",247454,0.063,358.7,20,100,0,0,867.5687,0,1.931,3.051,206,22.59,21.71,0.2273725,0,50.17,57.33,33.34,35.06
"2016-08-06 00:20:00",247455,0,0,19.97,100,0,0,867.4243,0,1.874,3.052,219,22.58,21.72,0.2273725,0,50.11,57.33,33.33,35.06
"2016-08-06 00:30:00",247456,0,0,19.89,100,0,0,867.3859,0,1.644,3.054,212,22.51,21.72,0.2273725,0,50.11,57.33,33.33,35.06
"2016-08-06 00:40:00",247457,0,0,19.92,100,0,0,867.4,0,2.449,3.046,309,22.5,21.71,0.3600064,0,50.11,57.27,33.33,35.05
"2016-08-06 00:50:00",247458,0.049,304,19.85,100,0,0,867.3945,0,2.198,3.05,309,22.5,21.71,0.2387411,0,50.11,57.27,33.33,35.05
"2016-08-06 01:00:00",247459,0.171,24.06,19.72,100,0,0,867.3664,0,1.969,3.052,303,22.5,21.71,0.4736926,0,50.06,57.27,33.31,35.05
"2016-08-06 01:10:00",247460,0.405,29.17,19.62,100,0,0,867.3551,0,2.119,3.051,286,22.5,21.71,0.5002194,0,50.06,57.22,33.31,35.03
"2016-08-06 01:20:00",247461,0.124,345.9,19.71,100,0,0,867.3557,0,-1.035,3.081,209,22.44,21.71,0.6821174,0,50.06,57.22,33.31,35.03
"2016-08-06 01:30:00",247462,0.087,313.9,19.75,100,0,0,867.1642,0,-2.611,3.096,189,22.39,21.71,0.5381148,0,50.06,57.22,33.31,35.03
"2016-08-06 01:40:00",247463,0.128,86.6,19.66,100,0,0,867.0782,0,0.98,3.062,252,22.38,21.71,0.4320077,0,50.06,57.22,33.31,35.03
"2016-08-06 01:50:00",247464,0.114,10.17,19.56,100,0,0,866.9037,0,1.281,3.06,280,22.4,21.71,0.3751645,0,50.06,57.22,33.31,35.03
"2016-08-06 02:00:00",247465,0.009,276.8,19.46,100,0.09039652,0,866.9289,0,0.764,3.065,268,22.41,21.71,0.4357972,0.723,50.01,57.16,33.3,35.02
"2016-08-06 02:10:00",247466,0.141,15.35,19.41,100,0.02751198,0,866.8923,0,1.742,3.056,232,22.39,21.71,0.3675855,0.193,50.06,57.16,33.31,35.02
"2016-08-06 02:20:00",247467,0.314,345.9,19.39,100,0,0,866.8984,0,1.535,3.058,219,22.35,21.71,0.4016913,0,50.06,57.16,33.31,35.02
"2016-08-06 02:30:00",247468,0.095,298.3,19.4,100,0,0,866.9005,0,1.375,3.06,233,22.33,21.71,0.5419043,0,50.01,57.22,33.3,35.03
"2016-08-06 02:40:00",247469,0.055,176.8,19.33,100,0,0,866.8975,0,1.375,3.06,230,22.32,21.71,0.3524273,0,50.01,57.16,33.3,35.02
"2016-08-06 02:50:00",247470,0.074,222.6,19.35,100,0,0,866.888,0,1.135,3.063,224,22.32,21.71,0.4320077,0,50.01,57.16,33.3,35.02
"2016-08-06 03:00:00",247471,0.248,192.8,19.14,100,0,0,866.8924,0,0.929,3.065,220,22.33,21.71,0.2614783,0,50.01,57.16,33.3,35.02
"2016-08-06 03:10:00",247472,0.429,185.2,19.02,100,0,0,866.8928,0,0.943,3.066,221,22.36,21.71,0.2880051,0,50.01,57.1,33.3,35.01
"2016-08-06 03:20:00",247473,0.093,169.1,18.88,100,0,0,866.8412,0,0.934,3.067,248,22.27,21.72,0.3486378,0,50.01,57.16,33.3,35.02
"2016-08-06 03:30:00",247474,0.147,149.2,18.81,100,0,0,866.6459,0,1.323,3.063,254,22.24,21.75,0.5343253,0,50.01,57.1,33.3,35.01
"2016-08-06 03:40:00",247475,0.401,37.92,19.03,100,0,0,866.6478,0,-1.299,3.087,205,22.24,21.74,0.8071722,0,50.01,57.1,33.3,35.01
"2016-08-06 03:50:00",247476,0.487,9.25,19.01,100,0,0,866.644,0,-1.872,3.093,195,22.24,21.74,0.4471658,0,50.01,57.1,33.3,35.01
"2016-08-06 04:00:00",247477,0.228,44.7,18.88,100,0,0,866.6484,0,-2.525,3.1,190,22.27,21.71,0.2652679,0,49.95,57.04,33.28,34.99
"2016-08-06 04:10:00",247478,0.033,45.49,18.71,100,0,0,866.6336,0,-2.079,3.098,199,22.18,21.72,0.2387411,0,49.95,57.1,33.28,35.01
"2016-08-06 04:20:00",247479,0.071,180.3,18.23,100,0,0,866.6442,0,-2.247,3.101,190,22.15,21.71,0.3069528,0,50.01,57.04,33.3,34.99
"2016-08-06 04:30:00",247480,0.364,166.3,17.92,100,0,0,866.6484,0,-2.547,3.106,190,22.16,21.71,0.3410587,0,49.95,57.04,33.28,34.99
"2016-08-06 04:40:00",247481,0.377,196.5,17.76,100,0,0,866.6484,0,-2.008,3.101,183,22.19,21.71,0.4850613,0,50.01,57.1,33.3,35.01
"2016-08-06 04:50:00",247482,0.166,187.7,17.73,100,0,0,866.6484,0,-1.697,3.098,192,22.09,21.71,0.6859069,0,49.95,57.04,33.28,34.99
"2016-08-06 05:00:00",247483,0.068,197.4,17.57,100,0,0,866.6484,0,0.175,3.081,228,22.06,21.68,0.7920141,0,49.95,56.98,33.28,34.98
"2016-08-06 05:10:00",247484,0.216,196.4,17.45,100,1.422763,0,866.6484,0,1.231,3.071,269,22.08,21.66,1.15581,0.837,49.9,57.04,33.27,34.99
"2016-08-06 05:20:00",247485,0.396,187.9,17.28,100,5.852192,0,866.6926,0,-1.697,3.101,197,22.06,21.66,1.512027,0.269,49.95,57.04,33.28,34.99
"2016-08-06 05:30:00",247486,0.283,197.3,17.2,100,11.2131,0,866.9011,0,-1.95,3.103,196,21.98,21.64,2.163828,0.194,49.9,57.04,33.27,34.99
"2016-08-06 05:40:00",247487,0.134,192.9,17.14,100,16.21635,0,866.9011,0,-2.752,3.111,190,21.98,21.66,2.72468,0.168,49.95,57.04,33.28,34.99
"2016-08-06 05:50:00",247488,0.114,192.9,17.35,100,22.50873,0,866.9011,0,-1.857,3.1,198,22.04,21.67,3.63038,0.161,49.95,57.04,33.28,34.99
"2016-08-06 06:00:00",247489,0.01,192.9,17.82,100,32.96329,0,866.9011,0,4.527,3.037,398,21.99,21.68,5.665364,0.172,49.9,56.98,33.27,34.98
"2016-08-06 06:10:00",247490,0,0,17.84,100,56.88299,0,866.9011,0,2.838,3.052,363,21.89,21.66,11.80821,0.209,49.9,56.98,33.27,34.98
"2016-08-06 06:20:00",247491,0,0,18.06,100,60.89974,0,866.8759,0,3.424,3.047,346,21.9,21.65,14.567,0.248,49.9,56.98,33.27,34.98
"2016-08-06 06:30:00",247492,0.007,24.19,18.62,98.1,76.14925,0,866.7495,0,-37.48,3.436,227,21.95,21.63,17.14767,0.243,49.95,56.98,33.28,34.98
"2016-08-06 06:40:00",247493,0.236,339.9,19.59,86.9,116.8788,0,866.8505,0,-2.389,3.095,190,21.89,21.63,19.61845,0.191,49.9,56.98,33.27,34.98
"2016-08-06 06:50:00",247494,0.138,11.17,19.61,89.9,124.3463,0,866.8674,0,-2.516,3.096,190,21.81,21.63,21.18353,0.209,49.95,56.93,33.28,34.97
"2016-08-06 07:00:00",247495,0.39,9.74,19.52,91.3,111.2663,0,866.9011,0,3.672,3.036,279,21.8,21.63,22.44924,0.222,49.9,56.93,33.27,34.97
"2016-08-06 07:10:00",247496,0.275,103.5,19.87,95.9,121.8938,0,866.8632,0,3.381,3.037,269,21.79,21.63,22.58566,0.238,49.9,56.93,33.27,34.97
"2016-08-06 07:20:00",247497,0.465,30.99,19.88,96.4,70.16342,0,866.8997,0,2.439,3.047,251,21.72,21.63,22.08166,0.342,49.9,56.93,33.27,34.97
"2016-08-06 07:30:00",247498,0.689,8.59,19.86,94,92.90011,0,866.8853,0,2.358,3.048,264,21.72,21.63,20.34604,0.24,49.9,56.93,33.27,34.97
"2016-08-06 07:40:00",247499,0.758,359.3,19.72,97.2,66.86591,0,866.8972,0,3.371,3.038,241,21.71,21.67,21.14564,0.316,49.9,56.93,33.27,34.97
"2016-08-06 07:50:00",247500,0.394,37.08,20.12,93.8,91.22188,0,866.8985,0,3.977,3.029,251,21.71,21.69,23.05557,0.281,49.9,56.87,33.27,34.95
"2016-08-06 08:00:00",247501,0.199,108.4,20.99,80.4,531.9953,0,866.8414,0,2.611,3.037,255,21.68,21.67,30.24054,0.057,49.84,56.87,33.26,34.95
"2016-08-06 08:10:00",247502,0.422,344.8,21.45,72.71,579.8465,0,866.704,0,0.927,3.053,227,21.64,21.64,53.09147,0.091,49.9,56.87,33.27,34.95
"2016-08-06 08:20:00",247503,0.18,351.9,21.94,70.85,611.5246,0,866.6302,0,0.112,3.057,216,21.7,21.62,68.68922,0.112,49.9,56.87,33.27,34.95
"2016-08-06 08:30:00",247504,0.379,15.14,22.42,72.17,647.5692,0,866.5381,0,2.007,3.039,285,21.67,21.59,78.07212,0.121,49.9,56.87,33.27,34.95
"2016-08-06 08:40:00",247505,0.831,11.13,21.97,82.7,687.5088,0,866.3243,0,3.522,3.026,262,21.62,21.62,84.80235,0.123,49.9,56.87,33.27,34.95
"2016-08-06 08:50:00",247506,0.784,11.3,21.91,86.9,721.2416,0,866.3072,0,4.149,3.02,264,21.53,21.55,88.56763,0.123,49.9,56.81,33.27,34.94
"2016-08-06 09:00:00",247507,0.775,13.12,22.1,86.1,751.0934,0,866.3054,0,3.034,3.029,238,21.53,21.54,90.63024,0.121,49.84,56.81,33.26,34.94
"2016-08-06 09:10:00",247508,0.589,15.62,22.42,84.4,784.828,0,866.3044,0,3.106,3.025,234,21.53,21.52,95.42455,0.122,49.84,56.81,33.26,34.94
"2016-08-06 09:20:00",247509,0.477,23.93,22.91,81.8,811.63,0,866.3021,0,2.369,3.031,229,21.51,21.51,99.98859,0.123,49.84,56.81,33.26,34.94
"2016-08-06 09:30:00",247510,0.827,7.702,23.02,82.2,840.8831,0,866.2852,0,2.06,3.034,211,21.49,21.47,105.5485,0.126,49.84,56.81,33.26,34.94
"2016-08-06 09:40:00",247511,0.562,4.252,23.36,81.5,856.1711,0,866.0579,0,1.831,3.034,215,21.48,21.46,109.3726,0.128,49.84,56.81,33.26,34.94
"2016-08-06 09:50:00",247512,0.41,3.225,23.47,81.3,885.0973,0,866.0516,0,2.212,3.029,241,21.46,21.45,112.9711,0.128,49.79,56.81,33.24,34.94
"2016-08-06 10:00:00",247513,0.339,355.6,23.85,80.2,935.7526,0,865.9863,0,1.133,3.038,198,21.47,21.43,120.4257,0.129,49.84,56.75,33.26,34.93
"2016-08-06 10:10:00",247514,0.377,35.69,23.9,79.04,904.7541,0,865.7989,0,1.24,3.037,203,21.47,21.38,118.1436,0.13,49.84,56.75,33.26,34.93
"2016-08-06 10:20:00",247515,0.33,15.7,24.27,78.24,942.4893,0,865.7968,0,-1.959,3.065,195,21.5,21.37,126.0683,0.133,49.79,56.75,33.24,34.93
"2016-08-06 10:30:00",247516,0.609,19.75,24.26,77.44,726.1967,0,865.7336,0,-1.977,3.067,200,21.47,21.35,95.37632,0.122,49.73,56.75,33.23,34.93
"2016-08-06 10:40:00",247517,0.486,332.8,23.91,79.59,709.5858,0,865.5526,0,3.597,3.014,296,21.53,21.33,98.84682,0.129,49.79,56.75,33.24,34.93
"2016-08-06 10:50:00",247518,0.439,341.8,24.21,78.04,815.4083,0,865.5547,0,2.066,3.026,220,21.54,21.3,115.5264,0.137,49.73,56.7,33.23,34.91
"2016-08-06 11:00:00",247519,0.641,3.63,24.85,73.38,1058.587,0,865.5399,0,2.955,3.017,290,21.57,21.29,154.5735,0.146,49.79,56.7,33.24,34.91
"2016-08-06 11:10:00",247520,0.248,266.5,24.6,75.22,610.1238,0,865.4536,0,2.34,3.022,222,21.61,21.32,81.06176,0.123,49.73,56.75,33.23,34.93
"2016-08-06 11:20:00",247521,0.414,3.281,25.21,72.97,1069.452,0,865.382,0,-1.189,3.054,206,21.7,21.32,159.096,0.149,49.73,56.7,33.23,34.91
"2016-08-06 11:30:00",247522,0.534,334.9,25.35,70.67,1056.552,0,865.2936,0,-1.282,3.054,235,21.76,21.3,154.5278,0.146,49.73,56.7,33.23,34.91
"2016-08-06 11:40:00",247523,0.162,217.5,25.77,67.38,953.3076,0,865.2936,0,1.462,3.026,248,21.8,21.29,136.646,0.141,49.68,56.64,33.22,34.9
"2016-08-06 11:50:00",247524,0.403,357.3,25.65,68.41,938.2891,0,865.2662,0,-2.687,3.067,211,21.89,21.27,134.921,0.142,49.68,56.64,33.22,34.9
"2016-08-06 12:00:00",247525,0.505,298.3,25.68,68.22,1019.574,0,865.1441,0,0.986,3.031,212,21.95,21.27,151.6074,0.149,49.68,56.64,33.22,34.9
"2016-08-06 12:10:00",247526,0.417,290.3,25.94,67.53,1023.546,0,865.0536,0,-0.662,3.045,201,22.03,21.22,153.4134,0.15,49.68,56.64,33.22,34.9
"2016-08-06 12:20:00",247527,0.245,25.02,26.06,65.58,1008.823,0,865.0325,0,1.487,3.024,232,22.1,21.2,151.4277,0.15,49.62,56.64,33.2,34.9
"2016-08-06 12:30:00",247528,0.587,342.5,26.27,63.38,1008.939,0,864.8472,0,-0.129,3.039,201,22.18,21.2,152.221,0.151,49.62,56.64,33.2,34.9
"2016-08-06 12:40:00",247529,0.233,289.1,26.58,64.71,993.5322,0,864.7882,0,0.64,3.029,198,22.29,21.2,151.0284,0.152,49.57,56.64,33.19,34.9
"2016-08-06 12:50:00",247530,0.356,10.62,26.77,63.28,989.1914,0,864.5566,0,-0.721,3.042,213,22.38,21.2,147.2157,0.149,49.57,56.58,33.19,34.88
"2016-08-06 13:00:00",247531,0.415,328,26.49,61.21,973.194,0,864.5356,0,0.348,3.034,229,22.48,21.2,146.8147,0.151,49.57,56.58,33.19,34.88
"2016-08-06 13:10:00",247532,0.435,24.64,26.73,60.89,959.202,0,864.5365,0,-0.603,3.04,202,22.61,21.2,144.6313,0.151,49.51,56.58,33.18,34.88
"2016-08-06 13:20:00",247533,0.51,317.6,26.66,61.05,950.071,0,864.5403,0,-0.787,3.04,202,22.72,21.2,143.8574,0.151,49.51,56.52,33.18,34.87
"2016-08-06 13:30:00",247534,0.474,309.1,26.48,61.55,933.0897,0,864.5367,0,0.289,3.035,315,22.8,21.2,141.9867,0.152,49.46,56.52,33.16,34.87
"2016-08-06 13:40:00",247535,0.361,221.5,26.58,60.14,921.8585,0,864.5358,0,1.073,3.024,306,22.91,21.22,139.3193,0.151,49.41,56.52,33.15,34.87
"2016-08-06 13:50:00",247536,0.35,268.9,26.97,58.31,898.4205,0,864.5293,0,-0.44,3.038,199,23.04,21.25,132.6613,0.148,49.41,56.52,33.15,34.87
"2016-08-06 14:00:00",247537,0.337,271.7,26.91,56.26,876.7807,0,864.4703,0,-0.085,3.035,246,23.13,21.23,127.291,0.145,49.41,56.46,33.15,34.86
"2016-08-06 14:10:00",247538,0.501,312.4,26.63,56.97,854.6368,0,864.3419,0,1.016,3.026,212,23.27,21.22,120.5105,0.141,49.35,56.52,33.14,34.87
"2016-08-06 14:20:00",247539,0.272,261.1,26.95,57.7,832.2776,0,864.2956,0,0.534,3.028,202,23.35,21.27,110.305,0.133,49.35,56.46,33.14,34.86
"2016-08-06 14:30:00",247540,0.368,287.4,27.04,56.08,802.8534,0,864.283,0,-0.468,3.04,234,23.45,21.28,97.86696,0.122,49.35,56.46,33.14,34.86
"2016-08-06 14:40:00",247541,0.327,263.6,26.93,56.47,776.4747,0,864.283,0,-2.11,3.053,209,23.54,21.29,81.52464,0.105,49.3,56.46,33.12,34.86
"2016-08-06 14:50:00",247542,0.402,327.3,27.09,54.77,740.6745,0,864.283,0,0.51,3.028,221,23.64,21.29,62.91358,0.085,49.3,56.46,33.12,34.86
"2016-08-06 15:00:00",247543,0.434,273.7,26.62,55.98,713.3347,0,864.2122,0,-0.519,3.04,216,23.74,21.29,39.85734,0.056,49.24,56.41,33.11,34.84
"2016-08-06 15:10:00",247544,0.29,207.6,26.9,56.23,528.8829,0,864.1116,0,-1.711,3.05,194,23.83,21.32,20.15094,0.051,49.24,56.41,33.11,34.84
"2016-08-06 15:20:00",247545,0.249,248.5,26.49,56.92,150.8559,0,864.1172,0,1.007,3.028,230,23.95,21.38,18.74965,0.129,49.24,56.41,33.11,34.84
"2016-08-06 15:30:00",247546,0.112,236.3,26.25,58.1,96.9638,0,864.2845,0,-0.881,3.046,188,24.03,21.39,13.75166,0.142,49.24,56.41,33.11,34.84
"2016-08-06 15:40:00",247547,0.263,259.2,26.06,58.92,84.57809,0,864.2899,0,-0.093,3.038,208,24.14,21.4,12.0202,0.142,49.13,56.35,33.08,34.83
"2016-08-06 15:50:00",247548,0.196,238.7,26.2,57.82,87.77444,0,864.2963,0,-2.257,3.06,213,24.2,21.48,12.88814,0.147,49.13,56.35,33.08,34.83
"2016-08-06 16:00:00",247549,0.246,180.7,25.87,61.87,89.9483,0,864.3446,0,-38,3.404,248,24.25,21.49,12.48273,0.139,49.13,56.35,33.08,34.83
"2016-08-06 16:10:00",247550,0.093,174.8,25.6,62.21,96.55131,0,864.5813,0,-38.65,3.41,243,24.33,21.5,12.68359,0.131,49.08,56.29,33.07,34.82
"2016-08-06 16:20:00",247551,0.101,171.7,25.73,62.11,148.8359,0,864.5953,0,-2.908,3.068,190,24.37,21.5,22.00208,0.148,49.08,56.29,33.07,34.82
"2016-08-06 16:30:00",247552,0.118,180.8,25.84,62.7,100.969,0,864.5902,0,-3.489,3.074,196,24.47,21.48,12.49412,0.122,49.08,56.29,33.07,34.82
"2016-08-06 16:40:00",247553,0.113,226.7,25.56,65.26,100.8275,0,864.5851,0,-2.454,3.065,196,24.48,21.49,12.58507,0.124,49.08,56.29,33.07,34.82
"2016-08-06 16:50:00",247554,0.193,144.7,25.42,68.34,120.2077,0,864.724,0,-0.421,3.046,248,24.59,21.62,16.67398,0.138,49.03,56.23,33.05,34.8
"2016-08-06 17:00:00",247555,0.247,81.7,25.59,69.56,122.6445,0,864.8508,0,-3.175,3.071,183,24.6,21.63,17.45462,0.141,49.03,56.23,33.05,34.8
"2016-08-06 17:10:00",247556,0.165,49.57,25.18,74.17,69.77039,0,864.8443,0,3.782,3.008,312,24.57,21.61,7.192549,0.098,49.03,56.23,33.05,34.8
"2016-08-06 17:20:00",247557,0.093,31.14,24.79,77.63,131.4994,0,864.8398,0,-0.223,3.047,224,24.58,21.61,18.7317,0.142,48.97,56.29,33.04,34.82
"2016-08-06 17:30:00",247558,0.169,351.4,24.92,77.87,142.1505,0,864.8304,0,-1.51,3.06,196,24.63,21.7,21.87323,0.154,48.97,56.23,33.04,34.8
"2016-08-06 17:40:00",247559,0.139,65.77,24.82,78.18,188.2095,0,864.9527,0,-1.802,3.061,191,24.64,21.69,30.55128,0.162,48.97,56.23,33.04,34.8
"2016-08-06 17:50:00",247560,0.096,323,24.85,77.03,79.4664,0,865.1948,0,1.274,3.034,262,24.64,21.69,10.25829,0.12,48.92,56.23,33.03,34.8
"2016-08-06 18:00:00",247561,0.166,136.8,24.12,81.3,34.77908,0,865.3464,0,1.714,3.034,208,24.64,21.76,3.194583,0.071,48.92,56.18,33.03,34.79
"2016-08-06 18:10:00",247562,0.174,73.67,23.58,82.5,14.80538,0,865.3408,0,1.9,3.034,202,24.64,21.84,0.09473852,0.006,48.97,56.18,33.04,34.79
"2016-08-06 18:20:00",247563,0,0,23.21,85.2,16.067,0,865.486,0,2.398,3.031,206,24.64,21.82,0.41306,0.025,48.92,56.18,33.03,34.79
"2016-08-06 18:30:00",247564,0.105,114.1,22.78,86.5,12.51009,0,865.4859,0,2.318,3.034,201,24.64,21.82,0.4774822,0.038,48.92,56.12,33.03,34.78
"2016-08-06 18:40:00",247565,0.145,130.7,22.53,88.4,8.473691,0,865.8463,0,2.7,3.031,201,24.67,21.88,0.5343253,0.065,48.86,56.18,33.01,34.79
"2016-08-06 18:50:00",247566,0.193,76.54,22.35,89,6.905508,0,865.8717,0,2.412,3.034,195,24.71,21.95,1.080019,0.162,48.92,56.12,33.03,34.78
"2016-08-06 19:00:00",247567,0.104,59.87,22.3,88.6,1.94156,0,865.8399,0,2.632,3.033,202,24.72,21.94,0.511588,0.257,48.92,56.12,33.03,34.78
"2016-08-06 19:10:00",247568,0.018,85.3,22.06,89.7,0,0,865.8765,0,2.782,3.032,203,24.68,21.9,0,0,48.92,56.12,33.03,34.78
"2016-08-06 19:20:00",247569,0.049,56.08,22.05,89.4,0,0,865.911,0,3.094,3.029,211,24.65,21.92,0.1174758,0,48.92,56.12,33.03,34.78
"2016-08-06 19:30:00",247570,0.047,89.4,22.02,89.8,0,0,866.136,0,2.748,3.033,216,24.67,21.98,0.02273725,0,48.86,56.12,33.01,34.78
"2016-08-06 19:40:00",247571,0.047,123.8,21.96,89.8,0,0,866.3141,0,2.587,3.035,208,24.64,22.03,0.04547449,0,48.86,56.12,33.01,34.78
"2016-08-06 19:50:00",247572,0.078,68.69,21.8,92.9,0,0,866.3898,0,2.553,3.036,200,24.63,21.99,0.06821174,0,48.86,56.06,33.01,34.76
"2016-08-06 20:00:00",247573,0.006,132.1,21.63,97.1,0,0,866.4709,0,2.772,3.035,200,24.61,22.08,0,0,48.86,56.06,33.01,34.76
"2016-08-06 20:10:00",247574,0,0,21.48,97.6,0,0,866.5,0,2.843,3.035,201,24.51,22.15,0,0,48.86,56.06,33.01,34.76
"2016-08-06 20:20:00",247575,0,0,21.23,99.2,0,0,866.5069,0,2.544,3.039,201,24.55,22.15,0,0,48.97,56.06,33.04,34.76
"2016-08-06 20:30:00",247576,0.051,276.8,21.03,100,0,0,866.6351,0,2.383,3.041,200,24.54,22.15,0.05684311,0,48.81,56.06,33,34.76
"2016-08-06 20:40:00",247577,0,0,20.98,100,0,0,866.5676,0,2.362,3.043,201,24.44,22.12,0.09473852,0,48.81,56,33,34.75
"2016-08-06 20:50:00",247578,0,0,20.69,100,0,0,866.5809,0,2.362,3.043,201,24.47,22.14,0.05684311,0,48.86,56,33.01,34.75
"2016-08-06 21:00:00",247579,0,0,20.88,100,0.01965142,0,866.6483,0,2.199,3.043,197,24.47,22.24,0.5797998,0.241,48.81,56,33,34.75
"2016-08-06 21:10:00",247580,0.229,95.1,21,100,0.2318867,0,866.6315,0,2.315,3.043,202,24.35,22.24,0.5722207,2.41,48.81,56.06,33,34.76
"2016-08-06 21:20:00",247581,0.054,114.1,20.83,100,0,0,866.4525,0,2.189,3.044,203,24.37,22.24,0.2273725,0,48.81,56,33,34.75
"2016-08-06 21:30:00",247582,0.011,130.1,20.85,100,0,0,866.3956,0,2.028,3.046,202,24.39,22.23,0.1477921,0,48.81,56,33,34.75
"2016-08-06 21:40:00",247583,0.007,125.9,20.62,100,0,0,866.3956,0,2.075,3.046,209,24.34,22.22,0.0833699,0,48.75,56,32.99,34.75
"2016-08-06 21:50:00",247584,0,0,20.71,100,0,0,866.3998,0,1.844,3.048,204,24.32,22.3,0.2273725,0,48.81,55.95,33,34.74
"2016-08-06 22:00:00",247585,0.165,159.3,20.7,100,0,0,866.3956,0,1.857,3.049,205,24.31,22.32,0.1705294,0,48.81,56,33,34.75
"2016-08-06 22:10:00",247586,0.076,147,20.43,100,0,0,866.3953,0,1.743,3.051,203,24.2,22.32,0,0,48.81,56,33,34.75
"2016-08-06 22:20:00",247587,0.027,153.4,20.2,100,0,0,866.4451,0,1.734,3.052,204,24.23,22.32,0,0,48.81,55.95,33,34.74
"2016-08-06 22:30:00",247588,0.081,186.3,20.12,100,0,0,866.3964,0,1.677,3.053,203,24.21,22.32,0,0,48.86,56,33.01,34.75
"2016-08-06 22:40:00",247589,0,0,20.08,100,0,0,866.4753,0,1.814,3.051,220,24.13,22.32,0.1136862,0,48.81,55.95,33,34.74
"2016-08-06 22:50:00",247590,0.02,167.9,20.07,100,0,0,866.5481,0,1.667,3.054,203,24.13,22.32,0.2273725,0,48.75,55.95,32.99,34.74
"2016-08-06 23:00:00",247591,0.199,188.4,19.75,100,0,0,866.5255,0,1.935,3.053,209,24.07,22.36,0.1364235,0,48.81,55.95,33,34.74
"2016-08-06 23:10:00",247592,0.044,184.6,19.55,100,0,0,866.4718,0,2.015,3.052,210,24.03,22.34,0.2235829,0,48.75,55.95,32.99,34.74
"2016-08-06 23:20:00",247593,0.033,155.6,19.53,100,0,0,866.4057,0,2.212,3.051,226,24.06,22.33,0.2576888,0,48.81,55.95,33,34.74
"2016-08-06 23:30:00",247594,0.021,91.5,19.69,100,0,0,866.5135,0,2.015,3.052,218,23.99,22.36,0.6101161,0,48.75,55.95,32.99,34.74
"2016-08-06 23:40:00",247595,0.06,144.7,19.57,100,0,0,866.4209,0,2.156,3.052,224,23.95,22.4,0.4168495,0,48.75,55.89,32.99,34.72
"2016-08-06 23:50:00",247596,0.083,189,19.41,100,0,0,866.3998,0,1.903,3.054,220,23.98,22.41,0.2273725,0,48.75,55.89,32.99,34.72
